Dauntless Aviation
Airports Europe Czech Republic
LKPO
PRV

Prerov

Prerov, CZECH REPUBLIC

Airport Info
Suggest Updated Information for this Airport

Location

Latitude / Longitude: 49°25'32"N / 17°24'16"E
  49°25.548'N / 17°24.282'E
  49.4258 / 17.4047

Nearby radio navigation aids

CK PREROV NDB. 63.6° 2.8nm from CK to field.

Runway Information

Runway 06 /24

Dimensions: 8202 x 196 ft.
Surface: ASP
 
Runway 06
Runway 24
Latitude: 49.421419 49.430439
Longitude: 17.389275 17.420478
Elevation: 663 ft. 663 ft.
Runway true heading: 64.6 244.6
 

Instrument Procedures

  Aerodrome Chart

IAPs (Instrument Approach Procedures)

  ILS/DME Rwy 06
  NDB/DME (GPS) or PAR Rwy 06
  NDB (GPS) or PAR Rwy 06
  POLOM 3A

Departure Procedures

  Instrument Departure Chart HLV 1A - 2Z
  Instrument Departure Chart LUTIM 2A - 2Z
  Instrument Departure Chart MORKO 2Z
  Instrument Departure Chart POLOM 3A
Satellite photo at:
Airport distance calculator
From:
Weather Reports

METAR

LKKU
22.6nm SE
LKKU 281000Z 17020G30KT CAVOK 32/13 Q1002
LKMT
31.3nm NE
LKMT 281030Z 18012KT 140V200 CAVOK 31/16 Q1002 NOSIG
LKTB
33.3nm SW
LKTB 281030Z 16011G22KT 130V190 CAVOK 31/14 Q1001 NOSIG

TAF

LKMT
31.3nm NE
TAF LKMT 280500Z 2806/2912 VRB02KT CAVOK TEMPO 2806/2807 4000 BR NSC BECMG 2807/2809 19010KT TEMPO 2810/2823 20018G38KT PROB40 TEMPO 2816/2821 3000 TSRA BKN020CB PROB30 TEMPO 2821/2903 SHRA SCT035TCU TEMPO 2910/2912 7000 SHRA SCT030TCU PROB30 TEMPO 2910/2912 3000 TSRA SCT025CB
LKTB
33.3nm SW
TAF LKTB 280500Z 2806/2912 15008KT CAVOK BECMG 2807/2809 13010KT TEMPO 2809/2818 13018G38KT PROB40 TEMPO 2817/2821 5000 TSRA BKN025CB TEMPO 2821/2906 7000 SHRA SCT035TCU PROB30 TEMPO 2821/2902 20022G36KT 3000 TSRA BKN030CB TEMPO 2910/2912 7000 SHRA SCT035TCU
Safelog

 

Dauntless Aviation

© 2007-2017 Dauntless Aviation, all rights reserved
Information provided via PilotNav comes from a variety of official and unofficial data sources. As errors are possible, do not use PilotNav for primary flight planning purposes. Verify any information that you receive via PilotNav with current and canonical charts and other official documents. The material in this database is subject to database copyrights held by Dauntless Aviation and may not be copied without the express permission of Dauntless Aviation - licenses for use of part of all of this data are available for purchase; enquire via the Dauntless Aviation helpdesk. A number of mechanisms and markers exist in the database to protect against and identify infringement / copyright. Automated queries against this website are stictly prohibited, and all activity is logged and analyzed.